Location: Shades State Park
(39.9310°N, 87.0690°W)
Time: 18:00:17
(UTC-04:00)

ISS - Visible Passes

Search period start: 30 September 2016 00:00
Search period end: 10 October 2016 00:00
Orbit: 400 x 410 km, 51.6° (Epoch: 01 October)

Date Brightness Start Highest point End Pass type
(mag) Time Alt. Az. Time Alt. Az. Time Alt. Az.
30 Sep -3.4 20:32:11 10° SW 20:35:26 85° NW 20:37:49 17° NE visible
30 Sep 0.1 22:10:04 10° WNW 22:10:31 12° WNW 22:10:31 12° WNW visible
01 Oct -1.3 21:17:17 10° W 21:20:00 24° NNW 21:20:46 22° N visible
02 Oct -2.0 20:24:41 10° W 20:27:44 36° NNW 20:30:48 10° NE visible
02 Oct 0.1 22:03:26 10° NW 22:03:33 10° NW 22:03:33 10° NW visible
03 Oct -0.8 21:10:27 10° WNW 21:12:31 15° NNW 21:13:34 14° N visible
04 Oct -1.1 20:17:35 10° WNW 20:20:08 21° NNW 20:22:42 10° NNE visible
05 Oct -0.6 21:03:46 10° NNW 21:05:05 12° N 21:06:02 11° N visible
06 Oct -0.7 20:10:45 10° NW 20:12:35 14° NNW 20:14:27 10° NNE visible
07 Oct -0.6 20:56:50 10° NNW 20:57:39 11° N 20:58:18 10° N visible
08 Oct -0.6 20:04:00 10° NNW 20:05:06 11° N 20:06:14 10° NNE visible
09 Oct -0.7 20:48:57 10° NNW 20:50:11 12° N 20:50:28 11° NNE visible
